Terug naar catalogus

STARLINK-36174

ActiefCommunicatieVLEO
NORAD 67166·PAYLOAD·🇺🇸 United States

Gelanceerd Dec 17, 2025 vanaf Cape Canaveral Space Force Station

Loading…

Volgende Passages (komende 24 uur)

TLE

VersSource: CelesTrak SupGP

Epoch: Sep 15, 2026, 03:07 UTC

1 67166C 25303D   26258.13034722  .00037860  00000+0  13711-2 0  2580
2 67166  43.0027 320.7078 0001312 265.5087 301.3279 15.27563469    15

Volg STARLINK-36174 in realtime met AllMySat

Download on the App Store